Terminal Aerodrome Forecast
Issued by NWS Norman, OK

Home | Current Version | Previous Version | Text Only | Print | Product List | Glossary On
Versions: 1 2 3 4 5 6 7 8 9 10 11 12 13 14 15 16 17 18 19 20 21 22 23 24
000
FTUS44 KOUN 242320
TAFSPS
TAF
KSPS 242320Z 2500/2524 16010KT P6SM SCT250
     FM250900 02013KT P6SM SCT120 BKN250
     FM251700 03017G23KT P6SM SKC=

USA.gov is the U.S. government's official web portal to all federal, state and local government web resources and services.